Home > Weather > Volta Redonda > Past weeks

Flag for Brazil Past Weather in Volta Redonda, Rio de Janeiro, Brazil — Yesterday and Last 2 Weeks

Now
70 °F

Fog.


Feels Like: 70 °F
Forecast: 59 / 76 °F
Wind: 5 mph from West

Location: Galeao

Current Time: Jul 2, 2016 at 1:02:58 AM

Latest Report: Jul 2, 2016 at 12:00 AM


Visibility: 3 mi

Pressure: 30.24 "Hg

Humidity: 88%

Dew Point: 66 °F

Location of Volta RedondaLocation

Past Weather in Volta Redonda — Graph

°F

Volta Redonda Temperature Yesterday

Maximum temperature yesterday: 75 °F (at 2:00 PM)
Minimum temperature yesterday: 66 °F (at 3:00 AM)
Average temperature yesterday: 71 °F

High & Low Weather Summary for the Past Weeks

 TemperatureHumidityPressure
High81 °F (Jun 17, 3:00 PM)100% (Jun 30, 7:00 AM)30.36 "Hg (Jun 30, 7:00 AM)
Low59 °F (Jun 17, 2:00 AM)42% (Jun 17, 2:00 PM)30.04 "Hg (Jun 17, 2:00 PM)
Average68 °F81%30.21 "Hg
* Reported Jun 17 12:00 AM — Jul 2 12:00 AM, Volta Redonda, Weather by CustomWeather, © 2016

Note: Actual official high and low records may vary slightly from our data, if they occured in-between our weather recording intervals... More about our weather records

Advertising

Volta Redonda Weather History for the Previous 24 Hours

Scroll right to see more
 ConditionsComfort  
Time TempWeatherWind HumidityBarometerVisibility
12:00 AM
Sat, Jul 2
70 °FFog.5 mph88%30.24 "Hg3 mi
11:00 PM
Fri, Jul 1
72 °FFog.2 mph88%30.24 "Hg3 mi
10:00 PM72 °FPassing clouds.2 mph83%30.24 "Hg4 mi
9:00 PM72 °FPassing clouds.3 mph88%30.24 "Hg5 mi
8:00 PM70 °FPassing clouds.5 mph88%30.24 "Hg5 mi
7:00 PM72 °FClear.6 mph83%30.21 "Hg10 mi
6:00 PM72 °FClear.9 mph83%30.21 "Hg5 mi
5:00 PM72 °FPassing clouds.10 mph83%30.18 "Hg5 mi
4:00 PM73 °FPassing clouds.8 mph78%30.18 "Hg5 mi
3:00 PM73 °FScattered clouds.9 mph78%30.18 "Hg4 mi
2:00 PM75 °FScattered clouds.5 mph74%30.21 "Hg2 mi
1:00 PM73 °FScattered clouds.5 mph78%30.21 "Hg2 mi
12:00 PM73 °FMostly cloudy.7 mph78%30.24 "Hg1 mi
11:00 AM72 °FFog.5 mph83%30.27 "Hg1 mi
10:00 AM72 °FFog.7 mph78%30.30 "Hg1 mi
9:00 AM70 °FRain. Mostly cloudy.6 mph83%30.27 "Hg1 mi
8:00 AM70 °FRain. Low clouds.2 mph83%30.27 "Hg1 mi
7:00 AM68 °FRain. Low clouds.3 mph88%30.24 "Hg1 mi
6:00 AM68 °FFog.2 mph88%30.21 "Hg2 mi
5:00 AM68 °FFog.3 mph88%30.21 "Hg2 mi
4:00 AM68 °FFog.2 mph88%30.21 "Hg2 mi
3:00 AM66 °FFog.2 mph94%30.21 "Hg3 mi
2:00 AM68 °FLow clouds.5 mph88%30.24 "Hg4 mi
1:00 AM68 °FOvercast.2 mph88%30.24 "Hg4 mi
Weather by CustomWeather, © 2016

See weather overviewHow to use our weather pages